OE1TKS-HM Weather Reports


time (UTC)temp
C
wind
direction
speed
KPH
gust
KPH
rain 1hr
cm
rain 24hr
cm
rain mn
cm
humidity
%
barometer
mb
20260505123010 44 0.0 0.0 0.00 0.00 0.00 50
20260505122506 44 0.0 0.0 0.00 0.00 0.00 50
20260505122002 44 0.0 0.0 0.00 0.00 0.00 50
20260505121459 44 0.0 0.0 0.00 0.00 0.00 50
20260505120955 44 0.0 0.0 0.00 0.00 0.00 50
20260505120451 44 0.0 0.0 0.00 0.00 0.00 50
20260505115947 44 0.0 0.0 0.00 0.00 0.00 50
20260505115443 43 0.0 0.0 0.00 0.00 0.00 50
20260505114940 43 0.0 0.0 0.00 0.00 0.00 50
20260505114435 43 0.0 0.0 0.00 0.00 0.00 51
20260505113932 43 0.0 0.0 0.00 0.00 0.00 51
20260505113428 43 0.0 0.0 0.00 0.00 0.00 51
20260505112924 43 0.0 0.0 0.00 0.00 0.00 51
20260505112421 43 0.0 0.0 0.00 0.00 0.00 52
20260505111917 42 0.0 0.0 0.00 0.00 0.00 52
20260505111414 42 0.0 0.0 0.00 0.00 0.00 52
20260505110909 42 0.0 0.0 0.00 0.00 0.00 52
20260505110507 42 0.0 0.0 0.00 0.00 0.00 52
20260505110405 42 0.0 0.0 0.00 0.00 0.00 52
20260505101831 36 0.0 0.0 0.00 0.00 0.00 56
20260505101328 35 0.0 0.0 0.00 0.00 0.00 56
20260505100823 34 0.0 0.0 0.00 0.00 0.00 57
20260505095816 32 0.0 0.0 0.00 0.00 0.00 58
20260505095312 31 0.0 0.0 0.00 0.00 0.00 58
20260505094808 31 0.0 0.0 0.00 0.00 0.00 57
20260505094304 30 0.0 0.0 0.00 0.00 0.00 57
20260505093800 30 0.0 0.0 0.00 0.00 0.00 56
20260505093257 30 0.0 0.0 0.00 0.00 0.00 56
20260505092753 30 0.0 0.0 0.00 0.00 0.00 55
20260505092249 29 0.0 0.0 0.00 0.00 0.00 55
20260505091745 29 0.0 0.0 0.00 0.00 0.00 55
20260505091242 29 0.0 0.0 0.00 0.00 0.00 55
20260505090234 28 0.0 0.0 0.00 0.00 0.00 57
20260505085730 28 0.0 0.0 0.00 0.00 0.00 57
20260505085226 28 0.0 0.0 0.00 0.00 0.00 55
20260505084723 28 0.0 0.0 0.00 0.00 0.00 53
20260505084219 28 0.0 0.0 0.00 0.00 0.00 54
20260505083715 28 0.0 0.0 0.00 0.00 0.00 54
20260505083211 28 0.0 0.0 0.00 0.00 0.00 54
20260505082708 28 0.0 0.0 0.00 0.00 0.00 54
20260505082203 28 0.0 0.0 0.00 0.00 0.00 54
20260505081700 28 0.0 0.0 0.00 0.00 0.00 54
20260505081156 29 0.0 0.0 0.00 0.00 0.00 54
20260505080148 29 0.0 0.0 0.00 0.00 0.00 54
20260505075644 28 0.0 0.0 0.00 0.00 0.00 54
20260505075141 28 0.0 0.0 0.00 0.00 0.00 54
20260505072118 23 0.0 0.0 0.00 0.00 0.00 58
20260505071615 22 0.0 0.0 0.00 0.00 0.00 54
20260505071122 22 0.0 0.0 0.00 0.00 0.00 51
20260505071116 22 0.0 0.0 0.00 0.00 0.00 51